Location: Lecco
(45.8566°N, 9.3977°E)
Time: 07:11:48
(UTC+02:00)

A-11 Canister half - Pass Details

Date: 14 August 2020
Orbit: 1514 x 1686 km, 47.2° (Epoch: 21 September)

Event Time Altitude Azimuth Distance (km) Brightness Sun altitude
Rises 21:23:40 0° 277° (W) 4,776 13.0 -8.9°
Reaches altitude 10° 21:26:42 10° 278° (W) 3,814 12.3 -9.4°
Maximum altitude 21:36:31 85° 8° (N) 1,651 9.2 -10.8°
Drops below altitude 10° 21:46:41 10° 98° (E) 3,932 10.6 -12.3°
Enters shadow 21:46:49 10° 98° (E) 3,973 10.6 -12.3°
